Terminal Aerodrome Forecast
Issued by NWS Omaha/Valley, NE

Home | Current Version | Previous Version | Text Only | Print | Product List | Glossary On
Versions: 1 2 3 4 5 6 7 8 9 10 11 12 13 14 15 16 17 18 19 20 21 22 23 24 25 26 27 28 29 30 31 32 33 34 35 36 37 38
000
FTUS43 KOAX 230520
TAFOMA
TAF
KOMA 230520Z 2306/2406 12006KT P6SM SCT040 BKN120
      TEMPO 2306/2309 VRB25KT 5SM TSRA BKN030CB
     FM231000 11007KT 4SM BR BKN015
     FM231600 16013G22KT P6SM SCT040=

USA.gov is the U.S. government's official web portal to all federal, state and local government web resources and services.